Powrót do katalogu

FENGYUN 1C DEB

AktywnyPO
NORAD 29884·DEBRIS·🇨🇳 China

Wystrzelony May 10, 1999 z Taiyuan Satellite Launch Center

Loading…

Następne Przeloty (najbliższe 24 godziny)

TLE

ŚwieżeSource: Space-Track

Epoka: Sep 14, 2026, 04:25 UTC

1 29884U 99025GE  26257.18447079  .00001160  00000-0  37112-3 0  9993
2 29884  99.5773 328.7423 0043700  59.5960 326.5581 14.41299220 25168

Śledź FENGYUN 1C DEB w czasie rzeczywistym z AllMySat

Download on the App Store